Regional Weather Roundup
Issued by NWS

Home | Current Version | Previous Version | Graphics & Text | Print | Product List | Glossary Off
Versions: 1 2 3 4 5 6 7 8 9 10 11 12 13 14 15 16 17 18 19 20 21 22 23 24 25 26 27 28 29 30 31 32 33 34 35 36 37 38 39 40 41 42 43 44 45 46 47 48 49 50

000
ASUS43 KTOP 141459
RWRKS

WEATHER ROUNDUP FOR KANSAS
NATIONAL WEATHER SERVICE GOODLAND KS
1000 AM CDT SUN SEP 14 2014

NOTE:  "FAIR" INDICATES FEW OR NO CLOUDS BELOW 12,000 FEET WITH NO
SIGNIFICANT WEATHER AND/OR OBSTRUCTIONS TO VISIBILITY.

KSZ001>006-013>018-027>032-041>047-141600-
NORTHWEST KANSAS

CITY           SKY/WX    TMP DP  RH WIND       PRES   REMARKS
GOODLAND       FOG       50  50 100 SE6       30.13S VSB 1/2
HAYS           SUNNY     57  48  72 S12       30.16S
HILL CITY      SUNNY     55  48  77 S6        30.15S
RUSSELL        SUNNY     60  51  72 S14       30.16S
$$

KSZ061>065-074>080-084>089-141600-
SOUTHWEST KANSAS

CITY           SKY/WX    TMP DP  RH WIND       PRES   REMARKS
DODGE CITY     SUNNY     60  51  72 S15       30.14F
ELKHART          N/A    N/A N/A N/A MISG        N/A
GARDEN CITY    SUNNY     59  52  77 S13       30.11F
GREAT BEND     SUNNY     59  50  72 S16       30.17F
LIBERAL        SUNNY     64  55  72 S17       30.14R
$$

KSZ066>073-081>083-090>101-141600-
SOUTHEAST KANSAS

CITY           SKY/WX    TMP DP  RH WIND       PRES   REMARKS
CHANUTE        CLOUDY    60  52  74 S6        30.27R
COFFEYVILLE    CLOUDY    58  55  90 S6        30.28R
HUTCHINSON     SUNNY     61  51  70 S12       30.22S
NEWTON         SUNNY     61  48  63 S12G17    30.25R
PARSONS        CLOUDY    58  52  80 S3        30.28R
WICHITA INTL   MOSUNNY   64  51  62 S13       30.22F
WICHITA JABRA  SUNNY     62  51  67 S9        30.23S
WINFIELD       CLOUDY    61  54  77 SE9       30.26R
$$

KSZ007>012-019>026-033>040-048>060-102>105-141600-
NORTHEAST KANSAS

CITY           SKY/WX    TMP DP  RH WIND       PRES   REMARKS
CONCORDIA      SUNNY     60  52  74 S12       30.20S
EMPORIA        MOSUNNY   62  51  67 S7        30.25R
LAWRENCE       PTSUNNY   59  49  69 CALM      30.26R
MANHATTAN      SUNNY     62  51  67 SW3       30.22F
OLATHE IND     PTSUNNY   60  50  69 S5        30.27R
OLATHE EXE     CLOUDY    58  50  75 S3        30.26R
SALINA         SUNNY     61  52  72 S12       30.21S
TOPEKA BILLARD SUNNY     62  51  67 SE3       30.25F
TOPEKA FORBES  SUNNY     61  50  67 SE6       30.25S
$$


USA.gov is the U.S. government's official web portal to all federal, state and local government web resources and services.